This is the latest recevied weather packets stored in our database for station/object KM4CNW. If no packets are shown the sender has not sent any weather packets the latest 10 day(s).
| Time | Temp. | Humidity | Pressure | Rain* | Wind** | Luminosity | Snow |
|---|---|---|---|---|---|---|---|
| 1777206966 | 17.22° C | 96% | 1007.4 hPa | 0 mm | - | 175 W/m² | - |
| 1777206662 | 16.67° C | 96% | 1007.2 hPa | 0 mm | - | 119 W/m² | - |
| 1777206357 | 16.67° C | 96% | 1007.3 hPa | 0 mm | - | 126 W/m² | - |
| 1777206053 | 16.11° C | 96% | 1007.3 hPa | 0 mm | - | 69 W/m² | - |
| 1777205749 | 16.11° C | 96% | 1007.4 hPa | 0 mm | - | 40 W/m² | - |
| 1777205447 | 16.11° C | 96% | 1007.2 hPa | 0 mm | - | 35 W/m² | - |
| 1777205142 | 16.11° C | 97% | 1007 hPa | 0 mm | - | 35 W/m² | - |
| 1777204839 | 16.11° C | 97% | 1007.2 hPa | 0 mm | - | 25 W/m² | - |
| 1777204539 | 16.11° C | 97% | 1006.8 hPa | 0 mm | - | 24 W/m² | - |
| 1777204235 | 16.11° C | 97% | 1007 hPa | 0 mm | - | 18 W/m² | - |
| 1777203931 | 16.11° C | 97% | 1007 hPa | 0 mm | - | 16 W/m² | - |
| 1777203626 | 16.11° C | 97% | 1006.9 hPa | 0 mm | - | 21 W/m² | - |
| 1777203322 | 16.11° C | 97% | 1006.6 hPa | 0 mm | - | 28 W/m² | - |
| 1777203019 | 16.11° C | 97% | 1006.8 hPa | 0 mm | - | 22 W/m² | - |
| 1777202715 | 16.11° C | 97% | 1006.4 hPa | 0 mm | - | 19 W/m² | - |
| 1777202414 | 16.11° C | 97% | 1006.4 hPa | 0 mm | - | 16 W/m² | - |
| 1777202108 | 16.11° C | 97% | 1006.4 hPa | 0 mm | - | 14 W/m² | - |
| 1777201805 | 15.56° C | 97% | 1006.2 hPa | 0 mm | - | 14 W/m² | - |
| 1777201502 | 15.56° C | 97% | 1006.2 hPa | 0 mm | - | 11 W/m² | - |
| 1777201197 | 15.56° C | 97% | 1005.9 hPa | 0 mm | - | 9 W/m² | - |
| 1777200893 | 15.56° C | 97% | 1005.7 hPa | 0 mm | - | 6 W/m² | - |
| 1777200590 | 15.56° C | 97% | 1005.6 hPa | 0 mm | - | 5 W/m² | - |
| 1777200289 | 16.11° C | 97% | 1005.7 hPa | 0 mm | - | 4 W/m² | - |
| 1777199986 | 16.11° C | 97% | 1005.7 hPa | 0 mm | - | 2 W/m² | - |
| 1777199681 | 16.11° C | 97% | 1005.9 hPa | 0 mm | - | 1 W/m² | - |
* Rain latest hour (hover to see other rain measurements)
** Current wind speed in m/s (hover to see current wind gust speed)